CW8845 Weather Reports


Display with metric or nautical units.
time (UTC)temp
F
wind
direction
speed
MPH
gust
MPH
rain 1hr
in
rain 24hr
in
rain mn
in
humidity
%
barometer
mb
20260903202619 78 175 7.0 13.0 0.00 0.00 0.00 16 1011.8
20260903201613 78 207 9.0 15.0 0.00 0.00 0.00 16 1011.9
20260903200623 78 171 5.0 17.0 0.00 0.00 0.00 15 1012.0
20260903195625 78 186 7.0 16.0 0.00 0.00 0.00 16 1012.1
20260903194615 78 208 4.0 11.0 0.00 0.00 0.00 16 1012.3
20260903193629 77 229 5.0 12.0 0.00 0.00 0.00 16 1012.4
20260903192619 77 183 11.0 21.0 0.00 0.00 0.00 16 1012.7
20260903191649 77 246 6.0 16.0 0.00 0.00 0.00 16 1012.7
20260903190617 76 217 5.0 9.0 0.00 0.00 0.00 17 1012.9
20260903185619 76 263 4.0 10.0 0.00 0.00 0.00 18 1013.0
20260903184614 75 198 9.0 14.0 0.00 0.00 0.00 18 1013.2
20260903183625 75 103 3.0 10.0 0.00 0.00 0.00 18 1013.3
20260903182613 75 194 4.0 7.0 0.00 0.00 0.00 19 1013.5
20260903181626 75 219 4.0 7.0 0.00 0.00 0.00 19 1013.7
20260903180623 74 234 2.0 7.0 0.00 0.00 0.00 21 1013.8
20260903175627 74 185 2.0 5.0 0.00 0.00 0.00 20 1013.9
20260903174618 73 234 2.0 6.0 0.00 0.00 0.00 21 1014.0
20260903173629 73 274 1.0 7.0 0.00 0.00 0.00 21 1014.1
20260903172624 73 271 1.0 3.0 0.00 0.00 0.00 21 1014.2
20260903171615 72 304 1.0 4.0 0.00 0.00 0.00 22 1014.2
20260903170626 71 302 1.0 4.0 0.00 0.00 0.00 23 1014.2
20260903165628 70 302 1.0 3.0 0.00 0.00 0.00 26 1014.4
20260903164620 69 325 1.0 4.0 0.00 0.00 0.00 28 1014.3
20260903163631 68 20 1.0 5.0 0.00 0.00 0.00 28 1014.3
20260903162620 67 344 3.0 5.0 0.00 0.00 0.00 29 1014.2
20260903161613 66 348 3.0 6.0 0.00 0.00 0.00 31 1014.3
20260903160622 65 5 3.0 9.0 0.00 0.00 0.00 32 1014.5
20260903155624 65 338 3.0 6.0 0.00 0.00 0.00 34 1014.5
20260903154614 63 338 3.0 10.0 0.00 0.00 0.00 35 1014.6
20260903153627 63 360 2.0 9.0 0.00 0.00 0.00 36 1014.6
20260903152618 62 5 4.0 10.0 0.00 0.00 0.00 38 1014.7
20260903151630 60 13 2.0 5.0 0.00 0.00 0.00 42 1014.7
20260903150621 59 9 0.0 5.0 0.00 0.00 0.00 45 1014.8
20260903145627 59 10 2.0 6.0 0.00 0.00 0.00 44 1014.7
20260903144620 58 21 2.0 4.0 0.00 0.00 0.00 47 1014.6
20260903143651 56 75 0.0 3.0 0.00 0.00 0.00 47 1014.8
20260903142642 55 32 0.0 0.0 0.00 0.00 0.00 47 1014.6
20260903141616 55 32 0.0 2.0 0.00 0.00 0.00 48 1014.6
20260903140627 55 32 0.0 2.0 0.00 0.00 0.00 47 1014.5
20260903135630 54 32 1.0 4.0 0.00 0.00 0.00 47 1014.4
20260903134622 53 30 1.0 4.0 0.00 0.00 0.00 48 1014.3
20260903133618 52 42 1.0 3.0 0.00 0.00 0.00 48 1014.2
20260903132628 52 75 2.0 4.0 0.00 0.00 0.00 48 1014.1
20260903131619 52 75 0.0 1.0 0.00 0.00 0.00 48 1014.0
20260903130630 51 75 0.0 1.0 0.00 0.00 0.00 49 1014.0
20260903125617 51 75 0.0 2.0 0.00 0.00 0.00 50 1013.9
20260903124629 50 75 0.0 4.0 0.00 0.00 0.00 51 1013.8
20260903123619 51 39 1.0 4.0 0.00 0.00 0.00 50 1013.8
20260903122630 52 39 2.0 4.0 0.00 0.00 0.00 50 1013.8
20260903121646 52 40 0.0 2.0 0.00 0.00 0.00 49 1013.7
20260903120618 52 40 0.0 0.0 0.00 0.00 0.00 48 1013.5
20260903115622 53 40 0.0 0.0 0.00 0.00 0.00 47 1013.5
20260903114613 54 40 0.0 2.0 0.00 0.00 0.00 47 1013.5
20260903113628 54 40 1.0 2.0 0.00 0.00 0.00 47 1013.7
20260903111631 53 40 1.0 2.0 0.00 0.00 0.00 49 1013.5
20260903110621 54 40 0.0 2.0 0.00 0.00 0.00 47 1013.5
20260903105620 55 40 0.0 3.0 0.00 0.00 0.00 46 1013.4
20260903104621 56 40 0.0 2.0 0.00 0.00 0.00 43 1013.4
20260903103612 57 40 1.0 3.0 0.00 0.00 0.00 42 1013.2
20260903102624 57 40 0.0 2.0 0.00 0.00 0.00 41 1013.3
20260903101638 57 40 0.0 1.0 0.00 0.00 0.00 40 1013.2
20260903100628 57 40 0.0 2.0 0.00 0.00 0.00 40 1013.2
20260903095632 56 40 0.0 2.0 0.00 0.00 0.00 41 1013.2
20260903094623 56 40 0.0 0.0 0.00 0.00 0.00 44 1013.2
20260903093616 57 40 0.0 4.0 0.00 0.00 0.00 43 1013.2
20260903092626 57 40 2.0 3.0 0.00 0.00 0.00 41 1013.3
20260903091617 58 40 0.0 2.0 0.00 0.00 0.00 40 1013.2
20260903090612 58 40 0.0 1.0 0.00 0.00 0.00 39 1013.1
20260903085613 58 40 0.0 0.0 0.00 0.00 0.00 38 1013.0
20260903084623 58 40 0.0 0.0 0.00 0.00 0.00 38 1013.0
20260903083636 58 40 0.0 3.0 0.00 0.00 0.00 38 1013.1
20260903082629 60 40 0.0 0.0 0.00 0.00 0.00 36 1013.1
20260903081619 60 40 0.0 1.0 0.00 0.00 0.00 36 1013.1
20260903080629 60 40 0.0 2.0 0.00 0.00 0.00 34 1013.1
20260903075612 60 40 0.0 2.0 0.00 0.00 0.00 35 1013.1
20260903074626 60 40 1.0 3.0 0.00 0.00 0.00 35 1013.0
20260903073616 60 39 1.0 5.0 0.00 0.00 0.00 36 1013.2
20260903072625 61 21 2.0 6.0 0.00 0.00 0.00 35 1013.1
20260903071615 60 28 3.0 5.0 0.00 0.00 0.00 34 1013.0
20260903070629 61 28 2.0 4.0 0.00 0.00 0.00 34 1012.9
20260903065630 61 26 2.0 6.0 0.00 0.00 0.00 34 1012.7
20260903064620 62 25 1.0 5.0 0.00 0.00 0.00 34 1012.9
20260903063613 62 21 1.0 5.0 0.00 0.00 0.00 32 1012.8
20260903062624 62 336 1.0 4.0 0.00 0.00 0.00 32 1012.6
20260903061615 62 342 2.0 4.0 0.00 0.00 0.00 31 1012.7
20260903060635 62 5 0.0 1.0 0.00 0.00 0.00 32 1012.7
20260903055616 63 5 0.0 4.0 0.00 0.00 0.00 31 1012.3
20260903054629 63 5 2.0 6.0 0.00 0.00 0.00 31 1012.3
20260903053620 63 5 2.0 9.0 0.00 0.00 0.00 31 1012.4
20260903052630 63 19 2.0 8.0 0.00 0.00 0.00 30 1012.5
20260903051621 63 360 2.0 10.0 0.00 0.00 0.00 30 1012.7
20260903050634 63 12 3.0 9.0 0.00 0.00 0.00 30 1012.7
20260903045615 63 10 3.0 8.0 0.00 0.00 0.00 30 1012.4
20260903044625 63 30 2.0 4.0 0.00 0.00 0.00 31 1012.7
20260903043615 63 13 1.0 4.0 0.00 0.00 0.00 32 1012.8
20260903042629 63 68 3.0 5.0 0.00 0.00 0.00 31 1012.1
20260903041639 64 11 2.0 4.0 0.00 0.00 0.00 30 1012.8
20260903040629 63 11 2.0 4.0 0.00 0.00 0.00 30 1012.7
20260903035613 64 49 1.0 6.0 0.00 0.00 0.00 30 1012.8
20260903034628 64 10 3.0 8.0 0.00 0.00 0.00 30 1012.6
20260903033619 64 355 4.0 9.0 0.00 0.00 0.00 31 1012.5
20260903032630 64 322 4.0 8.0 0.00 0.00 0.00 31 1012.6
20260903031621 65 360 4.0 9.0 0.00 0.00 0.00 31 1012.5
20260903030617 65 355 3.0 9.0 0.00 0.00 0.00 30 1012.7
20260903025621 65 5 3.0 9.0 0.00 0.00 0.00 29 1012.4
20260903024631 66 26 2.0 8.0 0.00 0.00 0.00 30 1012.3
20260903023622 67 337 2.0 5.0 0.00 0.00 0.00 30 1012.3
20260903022617 68 15 3.0 9.0 0.00 0.00 0.00 27 1012.1
20260903021628 69 355 1.0 5.0 0.00 0.00 0.00 26 1012.2
20260903020619 69 342 3.0 8.0 0.00 0.00 0.00 26 1011.9
20260903015626 69 328 1.0 8.0 0.00 0.00 0.00 26 1011.8
20260903014618 70 329 2.0 10.0 0.00 0.00 0.00 26 1011.7
20260903013629 71 344 3.0 8.0 0.00 0.00 0.00 24 1011.8
20260903012641 72 360 4.0 11.0 0.00 0.00 0.00 21 1011.4
20260903011615 73 308 2.0 9.0 0.00 0.00 0.00 20 1011.4
20260903010626 73 306 3.0 10.0 0.00 0.00 0.00 19 1011.5
20260903005629 74 320 3.0 9.0 0.00 0.00 0.00 19 1011.4
20260903004621 74 295 3.0 8.0 0.00 0.00 0.00 18 1011.4
20260903003616 75 290 1.0 4.0 0.00 0.00 0.00 15 1011.3
20260903002627 75 298 1.0 4.0 0.00 0.00 0.00 15 1011.3
20260903001619 75 297 1.0 4.0 0.00 0.00 0.00 15 1011.5
20260903000612 76 284 2.0 7.0 0.00 0.00 0.00 14 1011.3
20260902235619 77 301 1.0 4.0 0.00 0.00 0.00 12 1011.4
20260902234651 77 246 3.0 11.0 0.00 0.00 0.00 11 1011.7
20260902233641 77 260 5.0 14.0 0.00 0.00 0.00 11 1011.9
20260902232652 78 241 3.0 10.0 0.00 0.00 0.00 11 1011.9
20260902231626 78 238 3.0 14.0 0.00 0.00 0.00 11 1012.0
20260902230617 78 215 5.0 16.0 0.00 0.00 0.00 11 1012.1
20260902225620 78 229 5.0 14.0 0.00 0.00 0.00 11 1012.1
20260902224631 79 255 5.0 16.0 0.00 0.00 0.00 11 1012.1
20260902223627 79 219 7.0 17.0 0.00 0.00 0.00 12 1012.1
20260902222618 79 202 7.0 21.0 0.00 0.00 0.00 11 1012.1
20260902221630 79 239 10.0 16.0 0.00 0.00 0.00 10 1012.3
20260902220641 79 219 9.0 18.0 0.00 0.00 0.00 11 1012.2
20260902215627 79 190 7.0 16.0 0.00 0.00 0.00 11 1012.1
20260902214619 79 233 7.0 18.0 0.00 0.00 0.00 11 1012.1
20260902213630 79 215 11.0 21.0 0.00 0.00 0.00 10 1012.2
20260902212621 80 261 10.0 20.0 0.00 0.00 0.00 11 1012.2
20260902211616 80 220 7.0 17.0 0.00 0.00 0.00 11 1012.1
20260902210627 80 182 8.0 20.0 0.00 0.00 0.00 14 1012.1
20260902205630 80 246 10.0 15.0 0.00 0.00 0.00 11 1011.9
20260902204624 80 196 10.0 18.0 0.00 0.00 0.00 11 1012.1
20260902203614 80 245 11.0 19.0 0.00 0.00 0.00 11 1012.1